This is the latest recevied weather packets stored in our database for station/object WD7OO. If no packets are shown the sender has not sent any weather packets the latest 10 day(s).
| Time | Temp. | Humidity | Pressure | Rain* | Wind** | Luminosity | Snow |
|---|---|---|---|---|---|---|---|
| 1777406192 | 15.56° C | 70% | 1014.3 hPa | 0 mm | - | 277 W/m² | - |
| 1777405892 | 16.11° C | 69% | 1014.5 hPa | 0 mm | - | 314 W/m² | - |
| 1777405588 | 15.56° C | 67% | 1014.6 hPa | 0 mm | - | 803 W/m² | - |
| 1777405286 | 15.56° C | 67% | 1014.2 hPa | 0 mm | - | 796 W/m² | - |
| 1777404980 | 15.56° C | 69% | 1014.5 hPa | 0 mm | - | 419 W/m² | - |
| 1777404675 | 15° C | 69% | 1014.3 hPa | 0 mm | - | 858 W/m² | - |
| 1777404371 | 16.11° C | 69% | 1014.5 hPa | 0 mm | - | 373 W/m² | - |
| 1777404068 | 16.11° C | 69% | 1014.7 hPa | 0 mm | - | 360 W/m² | - |
| 1777403763 | 15.56° C | 70% | 1014.7 hPa | 0 mm | - | 443 W/m² | - |
| 1777403462 | 15° C | 70% | 1014.5 hPa | 0 mm | - | 397 W/m² | - |
| 1777403156 | 15° C | 72% | 1014.7 hPa | 0 mm | - | 441 W/m² | - |
| 1777402852 | 15° C | 73% | 1014.4 hPa | 0 mm | - | 370 W/m² | - |
| 1777402549 | 14.44° C | 75% | 1014.6 hPa | 0 mm | - | 307 W/m² | - |
| 1777402246 | 15° C | 74% | 1014.6 hPa | 0 mm | - | 360 W/m² | - |
| 1777401941 | 14.44° C | 76% | 1014.3 hPa | 0 mm | - | 398 W/m² | - |
| 1777401640 | 15° C | 74% | 1014.3 hPa | 0 mm | - | 381 W/m² | - |
| 1777401337 | 14.44° C | 74% | 1014.4 hPa | 0 mm | - | 428 W/m² | - |
| 1777401033 | 14.44° C | 73% | 1014.4 hPa | 0 mm | - | 448 W/m² | - |
| 1777400729 | 14.44° C | 74% | 1014.4 hPa | 0 mm | - | 385 W/m² | - |
| 1777400427 | 14.44° C | 74% | 1014.3 hPa | 0 mm | - | 422 W/m² | - |
| 1777400126 | 14.44° C | 74% | 1014.3 hPa | 0 mm | - | 363 W/m² | - |
| 1777399824 | 14.44° C | 73% | 1014.2 hPa | 0 mm | - | 574 W/m² | - |
| 1777399521 | 14.44° C | 74% | 1014.2 hPa | 0 mm | - | 354 W/m² | - |
| 1777399218 | 13.89° C | 75% | 1014.1 hPa | 0 mm | - | 329 W/m² | - |
| 1777398916 | 14.44° C | 75% | 1013.9 hPa | 0 mm | - | 298 W/m² | - |
* Rain latest hour (hover to see other rain measurements)
** Current wind speed in m/s (hover to see current wind gust speed)